Regional Weather Roundup
Issued by NWS

Home | Current Version | Previous Version | Graphics & Text | Print | Product List | Glossary On
Versions: 1 2 3 4 5 6 7 8 9 10 11 12 13 14 15 16 17 18 19 20 21 22 23 24 25 26 27 28 29 30 31 32 33 34 35 36 37 38 39 40 41 42 43 44 45 46 47 48 49 50
000
ASUS43 KBIS 222302
RWRND

NORTH DAKOTA REGIONAL WEATHER ROUNDUP
NATIONAL WEATHER SERVICE BISMARCK ND
500 PM CST SUN JAN 22 2017

NOTE: "FAIR" INDICATES FEW OR NO CLOUDS BELOW 12,000 FEET WITH NO
SIGNIFICANT WEATHER AND/OR OBSTRUCTIONS TO VISIBILITY.


NDZ001>003-009>011-017-230000-
NORTHWEST NORTH DAKOTA

CITY           SKY/WX    TMP DP  RH WIND       PRES   REMARKS
WILLISTON      CLOUDY    30  25  81 W9        29.81R
MINOT          CLOUDY    32  29  88 W10       29.76R
MINOT AFB      CLOUDY    31  27  86 NW12      29.76R
$$

NDZ018>021-031>035-040>046-230000-
SOUTHWEST NORTH DAKOTA

CITY           SKY/WX    TMP DP  RH WIND       PRES   REMARKS
BISMARCK       CLOUDY    32  28  85 W13       29.82R
DICKINSON      CLOUDY    27  23  85 NW18      29.79R WCI  14
GARRISON         N/A     31  27  85 W10       29.78R
HETTINGER ARPT CLOUDY    26  22  84 W20       29.83S WCI  12
$$

NDZ004>008-012>016-024-026-027-054-230000-
NORTHEAST NORTH DAKOTA

CITY           SKY/WX    TMP DP  RH WIND       PRES   REMARKS
GRAND FORKS    CLOUDY    33  28  81 W5        29.75R
GRND FRKS AFB  CLOUDY    32  28  86 NW5       29.75R
DEVILS LAKE    MOCLDY    28  24  85 NW10      29.75R WCI  19
$$

NDZ022-023-025-028>030-036>039-047>053-230000-
SOUTHEAST NORTH DAKOTA

CITY           SKY/WX    TMP DP  RH WIND       PRES   REMARKS
FARGO          CLOUDY    35  31  85 W7        29.76S
JAMESTOWN      CLOUDY    32  29  88 NW14      29.76R
$$





USA.gov is the U.S. government's official web portal to all federal, state and local government web resources and services.